RH
10 11 11 11 10 11 11 11 13 16 20 23 22 20 22 26 28 27 29 30 31 32 35 38 37 38 38 35 38 42 44 47 49 47 41 39 38 33 32 33 31 26 22 19 18 17 18 19 20 20 21 22 22 23 25 26 26 26 28 28 28 29 29 28 26 25 25 25 25 26 28 29 29 30 30 31 32 33 35 36 37 40 41 42 41 42
10 11 11 10 9 9 9 10 11 14 19 22 22 21 22 25 27 27 29 30 31 32 35 38 38 39 40 39 40 40 43 45 47 50 47 42 41 37 33 34 33 31 27 22 20 18 17 18 19 20 21 21 22 22 23 25 26 26 27 27 27 27 28 28 26 24 22 22 23 24 26 27 27 28 29 29 30 33 35 35 39 42 42 43 43 43
10 11 9 9 9 8 7 8 10 12 17 21 23 22 21 24 26 27 28 29 31 33 35 37 38 39 40 42 42 41 43 45 45 48 50 46 44 40 36 36 34 34 32 26 22 21 18 17 18 19 20 20 21 22 23 24 25 26 26 26 27 26 27 28 26 23 21 20 21 23 25 27 26 26 27 29 30 32 35 36 39 42 43 44 44 42
10 10 9 8 8 8 7 7 8 12 15 19 22 22 20 23 26 26 27 28 30 33 35 37 39 40 42 42 42 40 42 44 43 46 50 49 47 44 41 39 36 34 33 30 26 25 22 19 18 18 19 19 20 20 21 22 24 25 24 25 26 25 26 27 26 23 21 20 20 22 25 26 27 27 28 31 33 35 37 38 39 40 41 43 43 44
9 9 8 8 7 7 7 7 8 10 12 16 20 22 21 22 25 25 26 27 29 32 33 37 40 41 42 42 42 41 41 43 43 45 49 49 48 47 45 42 38 35 33 31 29 26 24 20 18 18 18 18 19 19 20 20 22 23 24 24 24 25 25 26 26 23 21 21 21 23 26 27 29 31 32 34 36 38 40 40 39 38 37 39 42 43
9 8 8 9 7 7 7 7 7 8 10 13 17 20 20 21 23 24 26 26 29 34 34 35 41 44 41 40 42 42 42 43 43 44 45 46 48 47 45 42 40 37 33 31 30 29 26 22 20 19 18 18 18 18 19 19 20 22 23 24 24 24 25 25 25 23 20 20 21 22 25 26 28 32 33 32 34 38 40 41 40 39 37 38 40 41
9 7 8 9 9 7 7 6 6 7 9 10 13 16 17 19 22 24 25 25 29 35 35 34 40 45 43 40 41 42 42 42 40 42 42 44 47 46 45 43 40 37 34 33 34 33 30 26 23 21 20 19 19 19 19 19 20 21 23 23 24 24 24 24 24 22 20 19 20 21 23 24 26 29 30 30 32 36 40 42 40 39 38 40 42 40
9 8 8 9 10 9 8 7 6 6 8 9 9 12 16 18 21 23 23 24 27 32 35 33 35 41 42 40 39 40 43 42 39 40 41 43 46 45 44 43 39 36 35 36 36 35 31 29 26 24 22 21 20 20 20 20 20 20 22 23 23 23 24 24 23 22 20 18 19 20 21 23 25 26 27 27 30 35 40 41 39 37 39 42 42 39
9 9 9 9 9 9 9 8 6 7 7 8 8 10 14 17 20 22 23 25 26 29 35 35 33 39 41 39 38 40 43 44 41 39 41 44 46 44 41 40 37 35 35 35 35 34 33 31 29 27 26 25 24 22 21 20 21 21 21 23 23 24 25 25 24 23 20 18 18 19 20 22 24 25 26 27 29 34 38 39 38 37 40 40 38 35
9 10 9 9 9 9 8 8 8 7 7 7 7 9 12 15 19 22 24 25 26 28 32 34 33 38 41 38 38 40 41 43 43 41 40 41 43 43 41 39 36 34 34 33 34 35 34 33 32 32 31 31 30 28 26 25 23 24 24 25 25 25 25 25 24 23 21 19 18 19 19 21 22 23 25 26 27 31 36 37 37 36 37 37 34 32
9 10 11 11 9 8 8 8 7 7 6 6 7 9 11 14 18 21 23 24 26 28 29 29 30 34 38 38 36 37 35 37 39 42 42 40 40 41 41 40 38 35 33 33 35 36 34 35 36 37 35 35 35 35 34 31 28 28 27 28 28 28 26 25 24 24 22 19 18 18 19 20 20 21 23 25 25 29 33 35 36 34 34 34 31 30
8 10 12 11 10 9 7 7 7 7 7 7 7 8 11 15 19 21 21 23 26 29 28 26 26 29 34 37 35 33 32 33 36 40 41 39 39 40 40 40 39 37 36 36 36 35 35 36 38 38 37 37 38 38 37 35 32 30 30 30 32 33 32 28 27 25 24 21 19 18 19 19 20 20 21 22 23 26 31 34 35 34 33 33 31 31
9 9 10 11 11 10 9 7 8 8 8 7 6 8 12 16 20 22 22 24 25 25 24 23 25 26 29 33 33 31 30 31 32 36 38 36 35 36 38 39 39 38 38 37 36 35 34 35 36 36 37 37 37 37 35 33 32 32 32 32 34 36 36 34 31 28 26 24 22 20 20 20 20 19 20 21 23 27 31 33 35 34 32 32 32 34
11 10 10 12 12 11 10 9 7 8 8 7 6 8 12 17 19 22 21 23 25 23 20 20 22 24 24 26 29 30 28 28 29 32 35 34 32 32 33 35 37 38 39 38 36 35 34 35 35 36 37 36 35 34 33 31 31 31 32 33 34 37 39 38 36 33 30 27 25 23 22 22 22 21 21 22 25 28 31 33 34 32 31 31 32 33
13 14 11 11 11 11 11 9 9 9 7 7 6 7 9 12 15 18 18 20 22 24 22 21 21 22 22 22 26 27 25 26 28 29 32 34 33 33 32 33 36 39 40 39 37 34 34 34 35 36 36 34 32 32 32 31 31 32 32 33 34 36 39 39 38 36 32 30 27 26 24 24 24 24 23 25 27 29 31 32 32 31 31 31 31 32
12 13 10 10 10 11 11 11 10 9 8 6 6 7 7 8 10 14 16 17 19 23 23 23 23 22 21 21 22 24 25 26 28 29 31 34 36 37 34 33 36 39 40 39 36 34 35 36 34 34 35 33 30 30 31 31 31 32 33 33 33 34 38 39 39 37 34 32 29 27 25 25 26 26 26 27 29 31 33 33 32 31 31 32 33 35
12 11 9 10 11 10 11 12 11 10 9 6 6 6 6 6 8 12 16 16 19 24 22 20 23 24 23 21 18 22 27 28 30 32 33 36 39 39 38 36 37 40 39 37 36 36 39 38 35 34 35 32 30 29 29 30 30 31 31 32 32 33 35 37 39 38 35 34 32 29 27 27 27 28 29 29 30 32 34 35 34 32 31 33 34 37
12 12 10 10 12 11 10 11 11 10 9 7 7 6 6 7 8 11 16 18 21 24 19 16 21 24 25 23 19 21 26 29 31 34 35 37 37 38 38 37 37 40 38 36 36 39 41 39 36 36 35 32 29 28 29 30 31 31 31 31 31 31 32 34 36 37 35 34 32 30 28 27 28 29 30 31 31 32 34 36 35 33 33 35 35 37
11 12 12 11 11 11 10 11 12 11 9 8 7 7 8 9 9 10 15 18 21 21 18 16 20 23 24 23 21 23 25 27 30 32 33 35 34 34 36 36 36 38 37 36 37 38 38 37 36 35 34 31 28 27 28 30 31 32 32 32 32 31 31 31 33 34 33 32 30 29 26 25 27 28 30 30 31 32 34 33 32 33 35 36 36 38
11 13 12 11 12 12 11 11 12 12 11 9 8 8 8 9 9 10 11 12 16 19 18 18 22 24 24 24 25 24 23 25 28 29 29 31 31 30 33 34 34 35 36 36 37 36 35 35 33 31 31 29 28 28 28 30 31 31 32 33 33 32 32 32 33 33 33 31 30 29 26 25 25 27 28 29 29 31 31 30 29 33 36 37 38 39
12 14 13 11 13 13 13 12 12 12 11 10 9 8 8 8 9 10 10 9 11 14 16 19 23 23 23 25 25 24 24 24 26 27 27 28 29 29 31 32 32 32 32 34 35 34 33 34 31 29 28 27 27 28 28 29 30 31 31 33 34 34 33 34 34 35 35 33 31 30 28 25 23 24 26 27 27 28 28 28 30 33 35 37 38 40
12 14 14 12 11 13 13 13 13 12 12 10 9 8 7 7 8 9 12 10 9 10 11 16 21 21 20 23 22 21 24 25 25 27 27 27 27 29 31 32 31 31 31 31 33 32 33 33 32 32 31 29 28 29 29 30 29 30 30 33 35 35 34 34 35 36 37 36 34 32 29 26 23 22 23 25 27 27 28 30 32 34 35 36 39 40
13 13 14 13 11 11 14 16 16 14 12 11 10 9 8 8 7 9 12 13 11 10 9 12 17 17 16 21 22 20 21 25 25 26 28 28 27 29 31 32 31 31 30 30 30 32 34 34 33 34 34 33 31 30 30 30 29 28 30 33 35 35 35 34 35 37 38 38 37 34 32 30 25 22 23 25 28 30 30 31 32 34 35 37 39 40
17 15 15 14 12 11 13 18 20 17 15 13 12 10 10 9 7 7 10 13 13 12 12 14 17 14 11 16 24 24 23 24 25 25 26 27 27 28 30 31 32 32 33 32 31 33 35 36 35 35 35 35 33 30 30 30 29 29 29 33 35 36 37 35 34 37 38 39 39 37 34 32 27 24 24 26 29 31 31 32 34 36 37 39 40 39
20 19 17 16 16 15 14 18 21 21 18 15 13 12 10 10 9 7 8 10 14 14 14 17 20 18 12 12 19 24 24 24 25 26 27 27 28 29 30 31 33 34 35 35 33 33 36 37 35 34 33 34 33 31 32 31 30 29 29 31 35 38 39 36 35 36 38 40 40 39 37 33 30 27 25 27 30 31 32 33 36 37 38 39 40 39
22 21 19 18 18 17 17 17 19 20 18 16 15 13 11 10 10 9 7 8 12 14 14 15 19 21 19 14 13 17 23 25 26 27 28 28 29 30 30 31 33 33 32 33 34 35 37 36 34 33 34 34 32 32 33 32 30 29 29 31 34 38 40 38 36 36 38 39 41 41 38 35 32 31 28 29 31 31 32 34 36 37 38 40 41 41
24 24 21 19 18 16 16 16 16 18 19 18 15 13 13 12 11 10 10 8 9 11 12 14 16 19 21 18 15 15 19 23 26 27 27 29 29 29 29 31 33 32 30 31 34 36 37 36 34 34 34 34 32 31 32 32 31 31 30 31 34 37 40 40 38 37 37 39 40 40 38 36 33 32 31 30 31 31 33 35 36 38 39 41 42 43
26 26 23 21 20 18 16 15 16 17 19 20 17 15 15 14 12 12 12 9 8 10 12 11 13 18 21 21 20 19 19 22 26 26 26 28 29 28 30 32 33 34 32 33 35 38 38 36 36 34 34 34 32 31 31 31 31 30 30 32 33 36 39 40 40 39 39 39 39 39 37 35 33 32 31 31 31 32 34 35 37 39 40 41 43 44
28 29 26 24 24 22 19 17 17 17 20 22 22 20 19 17 14 13 12 11 10 11 10 9 12 16 18 19 21 24 24 23 24 23 24 27 29 29 31 33 34 35 35 36 36 37 37 35 34 34 33 33 33 31 30 30 30 30 30 32 32 34 37 40 40 41 41 39 39 38 35 33 32 31 32 33 34 34 35 36 38 40 41 43 44 45
27 30 30 28 27 26 23 21 19 18 20 22 22 21 20 20 17 15 13 12 13 13 10 10 12 13 14 15 16 21 24 24 22 22 25 28 30 29 31 33 36 37 35 36 36 35 34 32 32 32 31 32 31 30 28 29 30 30 30 31 31 32 35 38 40 41 42 40 39 38 34 32 32 31 32 34 36 35 36 37 39 41 43 44 45 46
24 29 32 30 30 31 27 24 22 20 20 22 23 22 21 20 19 18 16 15 14 14 13 12 13 13 12 13 14 17 21 23 23 24 26 29 31 32 32 34 37 39 38 35 35 34 34 33 33 32 31 31 31 28 27 28 30 30 31 31 31 31 32 35 38 40 42 41 40 37 35 32 31 31 33 34 35 35 36 39 41 44 45 45 46 48
27 29 30 31 34 35 33 30 27 23 22 22 23 23 22 20 21 20 18 18 17 15 15 15 13 12 12 13 13 15 18 21 25 26 25 27 30 33 34 35 37 39 40 38 36 34 34 34 34 32 31 31 32 30 28 29 31 32 32 32 32 31 32 34 35 38 41 41 39 37 35 32 32 32 33 34 34 35 37 41 44 46 46 46 47 49
32 30 29 33 36 35 35 34 31 27 26 23 20 22 24 22 22 22 20 19 18 16 17 18 17 15 15 14 13 12 12 15 22 25 24 24 27 29 31 34 36 37 38 38 36 35 35 35 34 33 32 32 32 31 29 29 31 32 32 32 32 32 32 32 33 36 40 41 39 36 34 34 33 33 34 35 35 36 39 43 45 46 46 48 49 51
35 32 31 34 36 36 36 35 35 35 33 24 18 20 22 20 20 24 23 20 18 19 20 20 20 20 18 16 16 16 13 11 15 21 23 23 24 26 26 29 31 33 35 37 36 36 36 35 35 35 34 33 33 32 30 29 30 31 31 31 32 33 32 31 32 33 37 39 37 34 33 35 35 36 37 38 38 39 41 44 46 47 47 49 51 54
39 35 34 34 34 36 38 38 41 42 36 30 25 22 20 19 19 22 23 20 20 23 23 22 22 23 22 19 17 18 17 13 12 16 20 22 25 26 27 27 27 28 32 35 35 34 34 34 34 33 34 33 33 33 31 29 29 30 31 31 31 32 31 30 30 31 33 35 35 33 32 34 37 40 41 43 42 41 43 45 47 48 49 51 54 54
42 37 34 34 34 35 39 43 45 40 34 35 32 24 22 24 24 22 22 21 22 26 28 28 29 29 27 24 21 17 16 14 12 13 14 18 22 26 27 27 26 25 28 32 34 33 33 34 32 31 33 34 34 34 32 29 29 31 32 31 31 30 30 30 30 31 31 32 32 32 32 33 38 41 44 45 44 44 45 47 48 50 51 54 55 56
41 38 34 34 34 35 38 42 41 36 34 35 30 24 26 30 29 27 27 27 29 32 33 33 34 34 32 30 26 20 17 18 19 16 14 14 16 19 22 25 25 26 26 29 33 34 35 36 33 30 31 32 33 34 31 28 29 31 32 32 31 30 30 29 29 30 30 31 31 32 33 34 37 41 44 46 47 46 47 48 50 52 54 56 57 58
39 39 37 33 33 34 36 40 41 38 35 34 28 25 29 32 34 33 32 34 36 36 36 37 36 36 37 36 30 24 21 23 26 23 20 18 18 17 19 20 22 24 25 27 31 33 34 35 34 33 32 32 32 32 31 29 29 31 32 32 32 31 30 30 29 29 30 30 31 32 34 35 37 39 43 47 49 49 49 50 51 54 56 57 57 58
37 40 41 37 34 34 35 38 39 36 33 31 28 27 28 31 36 35 35 40 42 36 36 40 39 35 36 37 34 30 29 29 30 28 25 24 23 22 21 18 19 21 24 25 28 31 31 30 31 32 30 30 32 32 31 30 30 30 31 31 31 31 31 31 30 30 30 31 31 33 35 37 38 40 44 48 51 51 50 51 53 56 57 57 57 58
41 45 48 45 41 39 40 39 36 34 34 32 29 29 29 30 32 34 38 47 47 38 35 39 38 33 31 32 34 35 35 33 31 30 29 29 28 27 25 21 19 19 22 25 27 29 31 30 30 30 25 24 29 32 30 29 29 29 28 28 29 30 30 31 31 31 32 33 33 35 37 38 40 42 45 48 50 50 50 52 55 56 57 57 57 57
50 49 51 52 48 44 47 48 41 36 38 38 35 35 36 35 34 36 42 48 47 41 37 35 33 32 31 31 33 35 36 34 31 31 33 35 34 32 29 26 24 22 23 25 25 27 31 34 32 28 24 22 25 28 29 27 26 27 26 26 28 27 27 30 33 34 34 36 36 38 40 41 41 44 46 48 48 49 51 53 55 57 57 58 58 57
68 63 58 56 52 48 51 55 54 49 45 41 40 41 41 41 43 44 44 45 44 41 39 37 36 35 35 34 34 36 36 37 37 35 36 38 37 36 34 31 29 28 27 25 21 21 26 33 34 29 25 26 26 27 28 26 23 23 23 23 25 26 27 30 35 36 36 38 39 41 43 43 45 47 48 48 48 50 53 55 56 56 55 55 54 54
79 75 68 61 55 52 51 55 61 60 49 39 42 49 49 49 52 51 48 45 44 43 42 42 41 40 40 39 38 38 38 41 42 39 37 38 37 38 39 37 34 33 31 28 25 20 21 29 37 34 27 27 30 32 32 30 25 24 26 25 25 28 30 32 35 37 38 40 43 45 46 46 48 50 50 50 51 53 54 54 52 51 49 49 50 53
80 81 81 74 66 65 63 60 61 59 50 44 49 55 56 53 53 53 50 47 48 48 47 46 44 44 44 44 43 42 41 43 44 42 40 39 38 38 40 41 39 37 35 33 30 26 23 28 40 46 43 39 40 42 43 38 30 27 29 30 30 32 34 36 38 39 40 42 45 48 48 48 50 52 52 53 54 53 51 49 48 47 47 49 52 57
83 84 86 80 75 75 73 69 67 60 53 52 55 56 56 54 53 54 53 52 52 51 49 48 48 49 48 47 46 47 46 45 45 44 42 41 40 39 40 41 41 41 40 39 36 31 27 28 36 48 54 52 47 45 46 46 41 37 36 36 36 38 40 41 41 41 42 45 48 50 50 51 54 55 57 56 54 51 50 50 49 49 51 55 59 62
78 78 78 75 75 74 70 68 72 67 56 53 56 57 58 58 58 58 57 55 53 53 52 51 50 50 50 49 49 50 49 46 44 44 42 42 43 42 41 41 42 41 40 41 41 38 36 34 36 46 59 62 53 47 48 53 55 55 51 46 43 45 45 44 43 44 46 47 49 50 52 55 58 60 60 58 55 53 52 51 51 53 57 60 62 62
74 74 73 71 74 75 69 70 80 80 66 56 55 56 55 56 57 58 57 54 53 53 54 52 51 49 49 48 48 48 47 46 45 44 43 43 44 43 41 39 41 41 40 40 40 40 39 36 36 46 64 73 67 58 57 61 65 64 59 51 49 48 47 45 44 46 49 51 52 53 56 60 62 63 62 59 56 55 54 53 55 58 60 61 61 60
76 76 73 70 71 73 70 76 87 85 72 62 58 56 55 55 55 55 55 53 52 52 52 51 50 48 48 48 47 45 45 45 45 43 43 43 43 43 41 39 39 40 42 41 41 43 42 38 38 44 57 69 71 66 63 66 70 69 64 58 53 50 49 50 50 52 57 60 58 57 60 64 64 63 61 58 56 56 57 59 60 60 60 60 60 59
78 78 77 76 77 74 72 83 92 87 73 65 62 58 59 58 56 55 54 52 51 53 54 52 50 48 48 48 46 43 42 42 40 40 40 41 43 42 42 42 41 41 41 40 41 44 44 41 42 44 46 53 64 69 68 65 63 65 67 66 61 58 60 62 61 61 64 65 63 61 63 64 63 61 59 57 58 60 61 61 60 59 58 58 59 60
80 82 82 84 85 81 79 88 96 90 78 71 67 64 64 63 58 55 54 52 51 53 53 52 51 49 48 46 44 42 40 39 37 37 37 38 42 45 46 46 45 44 44 42 44 46 46 48 52 54 51 52 61 70 72 64 55 57 67 72 70 70 70 69 68 67 66 65 63 63 62 60 59 58 58 58 59 60 60 60 60 59 58 59 61 63
82 85 88 89 88 86 85 91 97 95 86 77 69 66 65 64 61 56 51 49 49 51 52 51 49 46 44 43 42 42 42 41 42 41 39 37 40 45 49 50 49 49 49 49 50 50 52 54 56 58 60 60 63 72 78 73 60 58 66 72 73 73 72 71 72 73 67 61 60 60 59 58 58 58 59 60 59 58 58 59 60 62 63 64 65 64